ORBCOMM FM 24

Satellite information

Favourite Embed

Satellite Type and Status

PAYLOADIN ORBIT

Key statistics

Satellite ORBCOMM FM 24 at a glance.

Uptime

9723

Days in orbit

Revolutions

≈ 14.4

Per day

Orbit

LEO

Low Earth Orbit

Inclination

45.0

Latest

Satellite identification and parameters

Extended collection of information and parameters for ORBCOMM FM 24.

Object identification

Identified? True

Debris? False

Object name: ORBCOMM FM 24

International designator: 1998-053D

Object number (NORAD): 25478

Object ID (CCSDS): 25478

Country: ORBITAL TELECOMMUNICATIONS SATELLITE (GLOBALSTAR) (ORB)

Current information (Y/N): Y

RCS size: MEDIUM

Orbital parameters

Period: 100.139 minutes

Inclination: 45.0062 deg

SMA: 7143.242 km

Apoapsis: 767.463 km

Periapsis: 762.751 km

RAAN: 104.5028 deg

Eccentricy: 0.0003298

Argument of periapsis: 337.9636 deg

Mean anomaly: 22.107 deg

Mean motion: 14.38002801 rev/day

Mean motion (dot): 0.00001495 rev/day2

B* drag term: 0.00053617 1/REarth

Two-line elements (TLE)

Creation date: May 7, 2025, 3:14 a.m.

Reference frame: TEME

Reference center: EARTH

Epoch: May 6, 2025, 11:18 p.m. UTC

TLE line 0: 0 ORBCOMM FM 24

TLE line 1: 1 25478U 98053D 25126.97132441 .00001495 00000-0 53617-3 0 9992

TLE line 2: 2 25478 45.0062 104.5028 0003298 337.9636 22.1070 14.38002801391512

Live tracking on map

Real-time ground track for satellite ORBCOMM FM 24.

In-orbit conjunctions

There are no conjunctions computed for ORBCOMM FM 24, at the moment. Check back to stay up to date, as we update our databases every day.

Go to all conjunctions

Associated space launch

ORBCOMM FM 24 was lifted into orbit during the mission ‘Pegasus XL HAPS | Orbcomm-C1 - C8’, on board a Pegasus XL HAPS space rocket.

The launch took place on Sept. 23, 1998, 5:06 a.m. from Wallops Flight Facility.

For more information about the launch, click the button.

Launch to space Pegasus XL HAPS | Orbcomm-C1 - C8
Pegasus XL HAPS | Orbcomm-C1 - C8

Agency: N/A

Status: Launch Successful

Launch date: Sept. 23, 1998, 5:06 a.m. UTC

Rocket: Pegasus XL HAPS

Launch pad: Wallops Flight Facility

Location: Air launch to orbit

...

Latest news about this satellite

There are no fresh news available about this satellite. Check back as we update our databases every day.


Newsletter sign-up

Weekly statistics, charts and insights to help you stay on top of the space industry.